Simultaneous Nadir Overpasses (SNOs) Predictions

Prediction of SNOs between AQUA and NOAA-19 Satellite Orbit:

Table of predicted SNOs for the next 14.0 days since TLE Epoch: 9/8/2012
Index Date (AQUA) Time (AQUA) AQUA Lat,Lon Date (NOAA-19) Time (NOAA-19) NOAA-19 Lat,Lon Distance(km) Time Diff (sec)
1 09/08/2012 23:11:22 46.03, 44.51 09/08/2012 23:11:00 45.99, 44.82 23.97 22
2 09/08/2012 23:59:39 -50.33,-146.15 09/09/2012 00:00:48 -50.34,-146.08 4.59 69
3 09/11/2012 03:55:36 46.04, -26.54 09/11/2012 03:55:36 46.02, -26.32 17.72 0
4 09/11/2012 04:34:48 -79.84,-171.80 09/11/2012 04:36:01 -79.37,-169.86 64.66 73
5 09/13/2012 07:50:26 -46.06, 94.75 09/13/2012 07:49:14 -45.96, 95.26 40.92 72
6 09/13/2012 08:39:28 47.32, -97.12 09/13/2012 08:39:50 47.30, -96.94 13.52 22
7 09/15/2012 12:34:39 -46.06, 23.69 09/15/2012 12:33:50 -45.99, 24.13 34.17 49
8 09/15/2012 13:23:19 48.62,-167.66 09/15/2012 13:24:03 48.62,-167.53 10.13 44
9 09/17/2012 17:18:52 -46.02, -47.37 09/17/2012 17:18:27 -45.96, -47.03 27.14 25
10 09/17/2012 18:07:08 50.00, 121.85 09/17/2012 18:08:15 49.99, 121.94 6.07 67
11 09/19/2012 22:03:04 -46.00,-118.43 09/19/2012 22:03:03 -45.98,-118.17 20.20 1
12 09/19/2012 22:41:08 81.54, 117.97 09/19/2012 22:42:21 80.92, 118.97 70.82 73
13 09/22/2012 01:57:45 46.03, 2.90 09/22/2012 01:56:40 45.46, 3.26 69.09 65




NCC Satellite Simultaneous Nadir Overpasses (SNOs) Prediction Service
